Location: Austin
(30.3000°N, 97.7500°W)
Time: 10:23:30
(UTC-05:00)

CZ-4C R/B - Pass Details

Date: 26 May 2023
Orbit: 556 x 1442 km, 63.4° (Epoch: 31 May)

Event Time Altitude Azimuth Distance (km) Brightness Sun altitude
Exits shadow 23:18:58 42° 359° (N) 955 2.8 -29.8°
Drops below altitude 10° 23:22:34 10° 22° (NNE) 2,251 4.8 -30.3°
Sets 23:25:15 0° 26° (NNE) 3,315 5.7 -30.6°
